Simultaneous Nadir Overpasses (SNOs) Predictions

Prediction of SNOs between NOAA-19 and NPP Satellite Orbit:

Table of predicted SNOs for the next 14.0 days since TLE Epoch: 10/26/2012
Index Date (NOAA-19) Time (NOAA-19) NOAA-19 Lat,Lon Date (NPP) Time (NPP) NPP Lat,Lon Distance(km) Time Diff (sec)
1 11/03/2012 01:47:52 -80.80, -77.04 11/03/2012 01:49:05 -80.80, -77.01 0.58 73
2 11/03/2012 02:38:48 80.78, 90.59 11/03/2012 02:39:49 80.78, 90.58 0.10 61
3 11/03/2012 03:29:56 -80.79,-102.22 11/03/2012 03:30:34 -80.78,-102.06 2.90 38
4 11/03/2012 04:20:52 80.77, 65.41 11/03/2012 04:21:18 80.77, 65.53 2.27 26
5 11/03/2012 05:11:56 -80.70,-126.00 11/03/2012 05:12:00 -80.70,-126.07 1.29 4
6 11/03/2012 06:02:52 80.68, 41.63 11/03/2012 06:02:44 80.68, 41.52 1.95 8
7 11/03/2012 06:53:59 -80.66,-150.84 11/03/2012 06:53:28 -80.66,-150.79 1.06 31
8 11/03/2012 07:44:54 80.64, 16.78 11/03/2012 07:44:11 80.64, 16.81 0.43 43




NCC Satellite Simultaneous Nadir Overpasses (SNOs) Prediction Service
